{"data":{"norad_id":59161,"epoch":"2026-05-24T23:02:11.472864Z","epoch_age_seconds":68608,"freshness":"FRESH","line1":"1 59161U 24044K   26144.95985501  .00005805  00000+0  22029-3 0  9990","line2":"2 59161  43.0046  35.9927 0001435 292.6208  67.4492 15.27579576125260","mean_motion":15.27579576,"eccentricity":0.0001435,"inclination_deg":43.0046,"raan_deg":35.9927,"arg_perigee_deg":292.6208,"mean_anomaly_deg":67.4492,"bstar":0.00022029,"rev_number":12526,"period_min":94.26677487864,"perigee_km":482.06578526151,"apogee_km":484.03494603545,"semimajor_km":6861.1873656485,"source":"CELESTRAK","updated_at":"2026-05-25T13:38:18.834266Z"}}